Other Public Products
Issued by NWS Grand Forks, ND

Home | Current Version | Previous Version | Graphics & Text | Print | Product List | Glossary On
Versions: 1 2 3 4 5 6 7 8 9 10 11 12 13 14 15 16 17 18 19 20 21 22 23 24 25 26 27 28 29 30 31 32 33 34 35 36 37 38 39 40 41 42 43 44 45 46 47 48 49 50
000
FPUS83 KFGF 250910
OPUFGF
PRAIRIE TO PINES WEATHER ROUNDUP
NATIONAL WEATHER SERVICE EASTERN NORTH DAKOTA/GRAND FORKS ND
400 AM CDT WED APR 25 2018

 **SATELLITE DATA USED TO AUGMENT SKY COVER AT AUTOMATED STATIONS**
 *****  WEATHER ACROSS EASTERN NORTH DAKOTA  *****

CITY           SKY/WX    TMP DP  RH WIND       PRES   REMARKS
GRAND FORKS    FAIR      32  30  92 S9        30.25F WCI  24
GRND FORKS AFB FAIR      34  27  75 SW9       30.24F
GRND FORKS NWS   N/A     36  30  78 SW6       30.22F
BUXTON           N/A     37  35  92 SW6         N/A
DEVILS LAKE    FAIR      37  27  67 SW12      30.23F
FARGO          FAIR      30  28  92 S5        30.28F
WAHPETON ARPT  FAIR      30  27  86 CALM      30.30S
$$

 *****  WEATHER ACROSS CENTRAL AND WESTERN NORTH DAKOTA  *****

CITY           SKY/WX    TMP DP  RH WIND       PRES   REMARKS
JAMESTOWN      FAIR      33  26  75 SW7       30.26F
BISMARCK       FAIR      33  27  78 CALM      30.27F
MINOT          FAIR      45  30  55 SW14      30.16F
MINOT AFB      FAIR      43  31  63 W13       30.15F
GARRISON         N/A     34  30  85 SW5       30.21F
WILLISTON      FAIR      40  33  76 SW8       30.18F
DICKINSON      FAIR      36  26  67 SW12      30.22F
HETTINGER      FAIR      30  23  75 CALM      30.29F
$$

 *****  OTHER OBSERVATIONS NORTHEAST NORTH DAKOTA  *****

CITY           SKY/WX    TMP DP  RH WIND       PRES   REMARKS
WALHALLA       NOT AVBL
LANGDON        FAIR      34  30  86 SW15      30.20S WCI  24
CAVALIER         N/A     37  27  65 S10       30.19F
GRAFTON        FAIR      28  27  93 S8        30.25S WCI  20
CANDO          FAIR      36  28  75 S8        30.21F
FORT TOTTEN      N/A     39  26  58 S8        29.95S
ROLLA          FAIR      37  25  60 SW17      30.16F
RUGBY          FAIR      36  28  75 S10       30.18F
 ***** THE ABOVE OBSERVATIONS ARE NON NWS ARE NOT QUALITY
        CONTROLLED AND MAY MIS-REPORT RAIN FOR SNOW...
$$

 *****  OTHER OBSERVATIONS SOUTHEAST NORTH DAKOTA *****

CITY           SKY/WX    TMP DP  RH WIND       PRES   REMARKS
COOPERSTOWN    NOT AVBL
VALLEY CITY    FAIR      27  27 100 S7        30.29F WCI  19
OAKES            N/A     32  32 100 SW3       30.30F
GWINNER          N/A     32  30  93 W8        30.30S WCI  25
SHEYENNE NWR     N/A     26  26 100 W2        29.95S
BUFFALO          N/A     37  29  74 W7          N/A
WYNDMERE       NOT AVBL
 ***** THE ABOVE OBSERVATIONS ARE NON NWS ARE NOT QUALITY
       CONTROLLED AND MAY MIS-REPORT RAIN FOR SNOW...
$$

  *****  WEATHER ACROSS NORTHERN MINNESOTA  *****

CITY           SKY/WX    TMP DP  RH WIND       PRES   REMARKS
FLAG ISLAND    FAIR      28  21  74 S5        30.21F WCI  23
WARROAD        FAIR      34  25  69 S8        30.23F
ROSEAU         FAIR      34  27  75 MISG      30.23F
HALLOCK        FAIR      30  27  86 S7        30.22F WCI  23
THF RVR FALLS  FAIR      33  24  69 S6        30.26F
HALSTAD        NOT AVBL
FOSSTON        FAIR      27  19  74 SE3       30.27S
BAUDETTE       FAIR      29  22  75 SW5       30.24F WCI  24
WASKISH        FAIR      25  21  86 CALM      30.26S
CROOKSTON      FAIR      30  27  86 S6        30.27F WCI  24
$$
  *****  WEATHER ACROSS CENTRAL AND WEST MINNESOTA  *****

CITY           SKY/WX    TMP DP  RH WIND       PRES   REMARKS
BEMIDJI        FAIR      23  19  86 CALM      30.26F
PARK RAPIDS    FAIR      25  20  81 CALM      30.27F
WADENA         FAIR      27  23  86 CALM      30.28S
DETROIT LAKES  FAIR      30  27  86 CALM      30.27F
MOORHEAD       FAIR      30  25  80 CALM      30.29F
FERGUS FALLS   FAIR      36  25  64 E3        30.28S
ELBOW LAKE     FAIR      33  25  72 NE5       30.30S
MORRIS MN      FAIR      30  28  93 CALM      30.29S
STAPLES        FAIR      25  21  86 CALM      30.29S
WHEATON        FAIR      32  28  86 W3        30.32F
$$
  *****  WEATHER ELSEWHERE ACROSS MINNESOTA  *****

CITY           SKY/WX    TMP DP  RH WIND       PRES   REMARKS
DULUTH         FAIR      29  20  69 N6        30.25S WCI  23
INTRNTL FALLS  FAIR      22  20  92 CALM      30.24F
ELY            FAIR      23  21  93 CALM      30.25S
CLOQUET        FAIR      28  19  69 NW3       30.26S
BRAINERD       FAIR      29  23  78 CALM      30.28F
HIBBING        FAIR      22  19  89 CALM      30.26S
ALEXANDRIA     FAIR      33  22  63 NE5       30.29S
SAINT CLOUD    FAIR      31  26  82 N5        30.28S
MINNEAPOLIS    FAIR      39  27  62 N8        30.26R
$$

  *****  WEATHER ACROSS SOUTH DAKOTA  *****

CITY           SKY/WX    TMP DP  RH WIND       PRES   REMARKS
SIOUX FALLS    FAIR      33  27  78 N5        30.28S
BROOKINGS      FAIR      33  28  81 N5        30.29S
WATERTOWN      FAIR      26  25  96 N3        30.28F
HURON          FAIR      29  27  92 NW3       30.32F
SISSETON         N/A     36  27  69 W3        30.30S
ABERDEEN       FAIR      26  25  96 CALM      30.32F
MITCHELL       FAIR      34  30  85 W5        30.33S
PIERRE         FAIR      32  30  92 W7        30.33F
MOBRIDGE       FAIR      33  28  81 SE7       30.28F
RAPID CITY     FAIR      31  22  69 W3        30.33F
$$

  *****  SOME WEATHER IN NEARBY STATES *****

CITY           SKY/WX    TMP DP  RH WIND       PRES   REMARKS
GLASGOW MT     FAIR      39  31  72 SE12      30.09F
GREAT FALLS MT FAIR      48  22  35 S20       30.11F
CHEYENNE WY    FAIR      26  24  92 W7        30.36F WCI  18
SCOTTSBLUFF NE FAIR      27  26  96 CALM      30.38F
OMAHA NE       CLOUDY    46  43  89 N12       30.20F
DES MOINES IA  CLOUDY    51  38  60 N12       30.16F
DAVENPORT IA   MOCLDY    51  41  68 NE12      30.09R
CHICAGO IL     CLOUDY    46  29  51 N21       30.05R
EAU CLAIRE WI  FAIR      35  27  72 N8        30.21S
LA CROSSE WI   FAIR      38  33  82 N9        30.18R
$$

  *****  SOME NATIONAL WEATHER *****

CITY           SKY/WX    TMP DP  RH WIND       PRES   REMARKS
LA GUARDIA NY  CLOUDY    55  53  93 E13       29.99F
RALEIGH NC     MOCLDY    60  60 100 S3        29.73F
ATLANTA GA     FAIR      56  55  97 W8        29.88S
NEW ORLEANS LA FAIR      59  59 100 CALM      30.03S
OKLAHOMA CITY  CLOUDY    50  43  77 N26G35    30.18R
ALBUQUERQUE NM FAIR      48  34  58 E26G37    30.19S
SALT LAKE CITY FAIR      50  27  40 S7        30.25F
LOS ANGELES CA CLOUDY    55  51  86 SW6       30.06S
BOISE ID       FAIR      48  30  49 S10       30.18F
SEATTLE WA     FAIR      55  36  48 N7        30.07S
$$

*** WEATHER ACROSS MANITOBA...SASKATCHEWAN AND ONTARIO ***
                ***ONTARIO***

CITY           SKY/WX    TMP DP  RH WIND       PRES   REMARKS
GERALDTON      CLEAR     21  19  93 N3        30.21S
THUNDER BAY    CLEAR     27  21  80 W2        30.25S
SIOUX LOOKOUT  CLEAR     25  21  86 SE6       30.20F WCI  18
TORONTO        LGT RAIN  48  46  93 E9        29.92F
BIG TROUT LK   PTCLDY    28  23  80 S8        30.00F WCI  20
PICKLE LAKE    NOT AVBL
DRYDEN         CLEAR     28  21  74 S10       30.20F WCI  19
KENORA         CLEAR     30  21  69 S9        30.19F WCI  22
$$
                *** MANITOBA***

CITY           SKY/WX    TMP DP  RH WIND       PRES   REMARKS
BRANDON        CLEAR     41  28  60 SW15      30.08F
DAUPHIN        CLEAR     50  28  43 SW18G24   29.95F
ISLAND LAKE    NOT AVBL
PILOT MOUND      N/A     34  27  75 S12         N/A
THE PAS        MOCLDY    50  30  46 W13       29.75F
THOMPSON       MOCLDY    37  28  70 S5        29.68F
WINNIPEG       CLEAR     39  23  52 S20       30.14F
LYNN LAKE      CLEAR     43  30  61 W10       29.67F
CHURCHILL      MOCLDY    34  32  93 S9        29.48F
GILLAM         MOCLDY    39  27  60 SW13      29.65F
$$
                ***SASKATCHEWAN***

CITY           SKY/WX    TMP DP  RH WIND       PRES   REMARKS
ESTEVAN        MOCLDY    41  30  65 SW14      30.10F
KINDERSLEY     CLOUDY    39  28  65 SW9       29.88F
LLOYDMINSTER   CLOUDY    46  28  49 NW9       29.93S
PRINCE ALBERT  MOCLDY    39  30  70 SW5       29.85F
REGINA         PTCLDY    43  28  56 S14       29.98F
YORKTON        CLEAR     45  28  53 SW14G20   29.94F


USA.gov is the U.S. government's official web portal to all federal, state and local government web resources and services.